| time (UTC) | temp C | wind direction | speed KPH | gust KPH | rain 1hr cm | rain 24hr cm | rain mn cm | humidity % | barometer mb |
| 20260502231913 | 15 | 355 | 0.0 | 0.0 | 0.00 | 0.00 | 0.91 | 98 | 1013.1 |
| 20260502231404 | 15 | 355 | 0.0 | 0.0 | 0.00 | 0.00 | 0.91 | 98 | 1013.1 |
| 20260502230903 | 15 | 355 | 0.0 | 0.0 | 0.00 | 0.00 | 0.91 | 98 | 1013.2 |
| 20260502230413 | 15 | 355 | 0.0 | 3.2 | 0.00 | 0.00 | 0.91 | 97 | 1013.2 |
| 20260502225903 | 15 | 356 | 0.0 | 0.0 | 0.00 | 0.00 | 0.91 | 98 | 1013.5 |
| 20260502225404 | 15 | 356 | 0.0 | 3.2 | 0.00 | 0.00 | 0.91 | 97 | 1013.5 |
| 20260502224903 | 15 | 357 | 1.6 | 3.2 | 0.00 | 0.00 | 0.91 | 97 | 1013.6 |
| 20260502224413 | 15 | 357 | 0.0 | 0.0 | 0.00 | 0.00 | 0.91 | 97 | 1013.7 |
| 20260502223903 | 15 | 357 | 0.0 | 1.6 | 0.00 | 0.00 | 0.91 | 97 | 1013.8 |
| 20260502223404 | 15 | 353 | 0.0 | 3.2 | 0.00 | 0.00 | 0.91 | 97 | 1013.8 |
| 20260502222903 | 15 | 346 | 3.2 | 4.8 | 0.00 | 0.00 | 0.91 | 97 | 1013.9 |
| 20260502222403 | 15 | 112 | 1.6 | 4.8 | 0.00 | 0.00 | 0.91 | 98 | 1013.7 |
| 20260502221903 | 15 | 327 | 3.2 | 8.0 | 0.00 | 0.00 | 0.91 | 99 | 1013.7 |
| 20260502221403 | 15 | 48 | 1.6 | 6.4 | 0.00 | 0.00 | 0.91 | 99 | 1013.5 |
| 20260502220903 | 15 | 65 | 1.6 | 3.2 | 0.00 | 0.00 | 0.91 | 99 | 1013.1 |
| 20260502220403 | 15 | 66 | 3.2 | 4.8 | 0.00 | 0.00 | 0.91 | 99 | 1013.0 |
| 20260502215914 | 15 | 66 | 1.6 | 3.2 | 0.00 | 0.00 | 0.91 | 99 | 1013.0 |
| 20260502215413 | 15 | 64 | 3.2 | 4.8 | 0.00 | 0.00 | 0.91 | 99 | 1013.0 |
| 20260502214903 | 15 | 64 | 3.2 | 6.4 | 0.00 | 0.00 | 0.91 | 99 | 1013.0 |
| 20260502214403 | 15 | 57 | 3.2 | 6.4 | 0.00 | 0.00 | 0.91 | 99 | 1013.0 |
| 20260502213913 | 15 | 43 | 1.6 | 3.2 | 0.00 | 0.00 | 0.91 | 99 | 1013.0 |
| 20260502213403 | 15 | 36 | 0.0 | 1.6 | 0.00 | 0.00 | 0.91 | 99 | 1013.0 |
| 20260502212903 | 15 | 36 | 1.6 | 3.2 | 0.00 | 0.00 | 0.91 | 99 | 1012.9 |
| 20260502212404 | 15 | 36 | 0.0 | 0.0 | 0.00 | 0.00 | 0.91 | 99 | 1012.8 |
| 20260502211914 | 15 | 36 | 0.0 | 0.0 | 0.00 | 0.00 | 0.91 | 99 | 1012.7 |
| 20260502211403 | 15 | 36 | 0.0 | 0.0 | 0.00 | 0.00 | 0.91 | 99 | 1012.7 |
| 20260502210903 | 15 | 36 | 0.0 | 0.0 | 0.00 | 0.00 | 0.91 | 98 | 1012.8 |
| 20260502210404 | 15 | 33 | 1.6 | 3.2 | 0.00 | 0.00 | 0.91 | 98 | 1012.8 |
| 20260502205903 | 15 | 35 | 1.6 | 3.2 | 0.00 | 0.00 | 0.91 | 98 | 1013.1 |
| 20260502205403 | 15 | 36 | 0.0 | 0.0 | 0.00 | 0.00 | 0.91 | 98 | 1013.0 |
| 20260502204903 | 15 | 36 | 0.0 | 1.6 | 0.00 | 0.00 | 0.91 | 97 | 1013.1 |
| 20260502204414 | 15 | 36 | 0.0 | 0.0 | 0.05 | 0.00 | 0.91 | 97 | 1013.2 |
| 20260502203903 | 15 | 36 | 0.0 | 0.0 | 0.05 | 0.00 | 0.91 | 97 | 1013.0 |
| 20260502203403 | 15 | 42 | 1.6 | 3.2 | 0.05 | 0.00 | 0.91 | 97 | 1013.0 |
| 20260502202904 | 15 | 44 | 3.2 | 4.8 | 0.05 | 0.00 | 0.91 | 97 | 1013.0 |
| 20260502202404 | 15 | 36 | 1.6 | 3.2 | 0.05 | 0.00 | 0.91 | 97 | 1013.0 |
| 20260502201903 | 16 | 36 | 1.6 | 3.2 | 0.05 | 0.00 | 0.91 | 97 | 1013.1 |
| 20260502201403 | 16 | 36 | 0.0 | 3.2 | 0.08 | 0.00 | 0.91 | 97 | 1013.4 |
| 20260502200904 | 15 | 36 | 0.0 | 0.0 | 0.08 | 0.00 | 0.91 | 97 | 1013.6 |
| 20260502200403 | 15 | 36 | 0.0 | 0.0 | 0.13 | 0.00 | 0.91 | 97 | 1013.6 |
| 20260502195903 | 16 | 45 | 1.6 | 4.8 | 0.13 | 0.00 | 0.91 | 96 | 1013.7 |
| 20260502195403 | 16 | 42 | 1.6 | 3.2 | 0.13 | 0.00 | 0.91 | 97 | 1013.5 |
| 20260502194904 | 16 | 42 | 1.6 | 3.2 | 0.13 | 0.00 | 0.91 | 96 | 1013.9 |
| 20260502194403 | 16 | 48 | 1.6 | 3.2 | 0.08 | 0.00 | 0.89 | 95 | 1014.1 |
| 20260502193903 | 16 | 48 | 0.0 | 3.2 | 0.08 | 0.00 | 0.89 | 96 | 1014.2 |
| 20260502193403 | 16 | 48 | 1.6 | 3.2 | 0.08 | 0.00 | 0.89 | 96 | 1014.3 |
| 20260502192903 | 16 | 47 | 0.0 | 0.0 | 0.08 | 0.00 | 0.89 | 96 | 1014.5 |
| 20260502192403 | 15 | 47 | 0.0 | 0.0 | 0.20 | 0.00 | 0.89 | 96 | 1014.7 |
| 20260502191903 | 16 | 47 | 0.0 | 0.0 | 0.48 | 0.00 | 0.89 | 95 | 1014.6 |
| 20260502191414 | 16 | 63 | 1.6 | 3.2 | 0.48 | 0.00 | 0.84 | 95 | 1014.5 |
| 20260502190903 | 16 | 72 | 1.6 | 4.8 | 0.43 | 0.00 | 0.79 | 93 | 1014.2 |
| 20260502190403 | 16 | 78 | 3.2 | 6.4 | 0.43 | 0.00 | 0.79 | 93 | 1014.1 |
| 20260502185903 | 16 | 86 | 3.2 | 4.8 | 0.48 | 0.00 | 0.79 | 94 | 1014.2 |
| 20260502185404 | 16 | 89 | 1.6 | 4.8 | 0.51 | 0.00 | 0.79 | 94 | 1014.4 |
| 20260502184903 | 16 | 90 | 1.6 | 3.2 | 0.51 | 0.00 | 0.79 | 95 | 1014.3 |
| 20260502184403 | 16 | 93 | 3.2 | 4.8 | 0.56 | 0.00 | 0.79 | 95 | 1014.3 |
| 20260502183903 | 16 | 84 | 1.6 | 6.4 | 0.56 | 0.00 | 0.79 | 94 | 1014.1 |
| 20260502183404 | 16 | 68 | 1.6 | 3.2 | 0.56 | 0.00 | 0.79 | 96 | 1014.1 |
| 20260502182903 | 17 | 77 | 1.6 | 4.8 | 0.64 | 0.00 | 0.79 | 97 | 1014.2 |
| 20260502182403 | 17 | 76 | 3.2 | 4.8 | 0.56 | 0.00 | 0.64 | 97 | 1014.2 |
| 20260502181904 | 18 | 53 | 3.2 | 6.4 | 0.36 | 0.00 | 0.36 | 97 | 1014.4 |
| 20260502181403 | 18 | 50 | 1.6 | 3.2 | 0.36 | 0.00 | 0.36 | 97 | 1014.0 |
| 20260502180903 | 18 | 67 | 1.6 | 3.2 | 0.36 | 0.00 | 0.36 | 97 | 1013.9 |
| 20260502180403 | 18 | 60 | 0.0 | 0.0 | 0.36 | 0.00 | 0.36 | 96 | 1013.4 |
| 20260502170404 | 23 | 82 | 3.2 | 4.8 | 0.00 | 0.00 | 0.00 | 67 | 1012.8 |
| 20260502163903 | 24 | 70 | 0.0 | 0.0 | 0.00 | 0.00 | 0.00 | 57 | 1013.4 |
| 20260502163403 | 24 | 68 | 1.6 | 4.8 | 0.00 | 0.00 | 0.00 | 59 | 1013.5 |
| 20260502162913 | 24 | 70 | 1.6 | 4.8 | 0.00 | 0.00 | 0.00 | 56 | 1013.5 |
| 20260502162404 | 25 | 63 | 3.2 | 6.4 | 0.00 | 0.00 | 0.00 | 57 | 1013.5 |
| 20260502161903 | 25 | 70 | 1.6 | 4.8 | 0.00 | 0.00 | 0.00 | 57 | 1013.7 |
| 20260502161403 | 25 | 68 | 3.2 | 4.8 | 0.00 | 0.00 | 0.00 | 57 | 1013.7 |
| 20260502160903 | 25 | 92 | 1.6 | 3.2 | 0.00 | 0.00 | 0.00 | 55 | 1013.8 |
| 20260502160414 | 26 | 185 | 1.6 | 3.2 | 0.00 | 0.00 | 0.00 | 49 | 1013.8 |
| 20260502151903 | 27 | 118 | 1.6 | 4.8 | 0.00 | 0.00 | 0.00 | 49 | 1014.4 |
| 20260502151403 | 27 | 346 | 3.2 | 4.8 | 0.00 | 0.00 | 0.00 | 48 | 1014.4 |
| 20260502150904 | 27 | 140 | 1.6 | 3.2 | 0.00 | 0.00 | 0.00 | 47 | 1014.5 |
| 20260502150403 | 27 | 178 | 3.2 | 4.8 | 0.00 | 0.00 | 0.00 | 48 | 1014.6 |
| 20260502130413 | 25 | 121 | 1.6 | 3.2 | 0.00 | 0.00 | 0.00 | 53 | 1016.0 |
| 20260502123403 | 25 | 171 | 3.2 | 6.4 | 0.00 | 0.00 | 0.00 | 52 | 1016.3 |
| 20260502122903 | 25 | 114 | 3.2 | 9.7 | 0.00 | 0.00 | 0.00 | 51 | 1016.4 |
| 20260502122403 | 25 | 89 | 3.2 | 4.8 | 0.00 | 0.00 | 0.00 | 53 | 1016.5 |
| 20260502121914 | 25 | 88 | 3.2 | 6.4 | 0.00 | 0.00 | 0.00 | 53 | 1016.5 |
| 20260502121403 | 25 | 92 | 3.2 | 6.4 | 0.00 | 0.00 | 0.00 | 53 | 1016.7 |
| 20260502120903 | 25 | 192 | 3.2 | 6.4 | 0.00 | 0.00 | 0.00 | 54 | 1016.6 |
| 20260502120403 | 25 | 325 | 3.2 | 4.8 | 0.00 | 0.00 | 0.00 | 52 | 1016.6 |
| 20260502115914 | 25 | 323 | 3.2 | 6.4 | 0.00 | 0.00 | 0.00 | 52 | 1016.6 |
| 20260502115403 | 25 | 213 | 3.2 | 6.4 | 0.00 | 0.00 | 0.00 | 54 | 1016.7 |
| 20260502114913 | 25 | 355 | 1.6 | 4.8 | 0.00 | 0.00 | 0.00 | 53 | 1016.8 |
| 20260502114404 | 25 | 327 | 3.2 | 4.8 | 0.00 | 0.00 | 0.00 | 54 | 1016.9 |
| 20260502113903 | 24 | 354 | 3.2 | 6.4 | 0.00 | 0.00 | 0.00 | 56 | 1016.9 |
| 20260502113403 | 23 | 273 | 3.2 | 6.4 | 0.00 | 0.00 | 0.00 | 57 | 1016.9 |
| 20260502112903 | 24 | 154 | 3.2 | 6.4 | 0.00 | 0.00 | 0.00 | 55 | 1017.1 |
| 20260502112404 | 25 | 67 | 3.2 | 8.0 | 0.00 | 0.00 | 0.00 | 53 | 1017.2 |
| 20260502111903 | 25 | 78 | 1.6 | 4.8 | 0.00 | 0.00 | 0.00 | 56 | 1017.2 |
| 20260502111413 | 24 | 74 | 1.6 | 4.8 | 0.00 | 0.00 | 0.00 | 53 | 1017.2 |
| 20260502110903 | 23 | 187 | 1.6 | 6.4 | 0.00 | 0.00 | 0.00 | 57 | 1017.3 |
| 20260502110404 | 24 | 72 | 1.6 | 3.2 | 0.00 | 0.00 | 0.00 | 53 | 1017.3 |
| 20260502105903 | 23 | 73 | 3.2 | 4.8 | 0.00 | 0.00 | 0.00 | 57 | 1017.3 |
| 20260502105403 | 24 | 71 | 1.6 | 6.4 | 0.00 | 0.00 | 0.00 | 57 | 1017.4 |
| 20260502104903 | 23 | 75 | 1.6 | 4.8 | 0.00 | 0.00 | 0.00 | 55 | 1017.5 |
| 20260502104403 | 23 | 203 | 1.6 | 4.8 | 0.00 | 0.00 | 0.00 | 55 | 1017.5 |
| 20260502103903 | 23 | 109 | 1.6 | 6.4 | 0.00 | 0.00 | 0.00 | 56 | 1017.5 |
| 20260502103403 | 23 | 250 | 1.6 | 3.2 | 0.00 | 0.00 | 0.00 | 56 | 1017.6 |
| 20260502102904 | 23 | 325 | 3.2 | 4.8 | 0.00 | 0.00 | 0.00 | 56 | 1017.7 |
| 20260502102404 | 23 | 67 | 1.6 | 3.2 | 0.00 | 0.00 | 0.00 | 53 | 1017.7 |
| 20260502101903 | 23 | 59 | 1.6 | 3.2 | 0.00 | 0.00 | 0.00 | 55 | 1017.7 |
| 20260502101403 | 23 | 77 | 1.6 | 3.2 | 0.00 | 0.00 | 0.00 | 57 | 1017.8 |
| 20260502100904 | 23 | 354 | 3.2 | 4.8 | 0.00 | 0.00 | 0.00 | 56 | 1017.8 |
| 20260502100404 | 23 | 158 | 3.2 | 6.4 | 0.00 | 0.00 | 0.00 | 58 | 1017.9 |
| 20260502091404 | 21 | 79 | 3.2 | 4.8 | 0.00 | 0.00 | 0.00 | 57 | 1018.2 |
| 20260502090904 | 21 | 81 | 1.6 | 3.2 | 0.00 | 0.00 | 0.00 | 62 | 1018.3 |
| 20260502090403 | 20 | 82 | 3.2 | 3.2 | 0.00 | 0.00 | 0.00 | 59 | 1018.3 |
| 20260502071403 | 18 | 68 | 1.6 | 3.2 | 0.00 | 0.00 | 0.00 | 50 | 1018.6 |
| 20260502070903 | 17 | 66 | 0.0 | 3.2 | 0.00 | 0.00 | 0.00 | 56 | 1018.7 |
| 20260502070413 | 17 | 66 | 0.0 | 3.2 | 0.00 | 0.00 | 0.00 | 59 | 1018.6 |
| 20260502065904 | 16 | 66 | 0.0 | 3.2 | 0.00 | 0.00 | 0.00 | 58 | 1018.6 |
| 20260502065403 | 16 | 66 | 1.6 | 4.8 | 0.00 | 0.00 | 0.00 | 60 | 1018.6 |
| 20260502064913 | 16 | 66 | 0.0 | 3.2 | 0.00 | 0.00 | 0.00 | 61 | 1018.6 |
| 20260502064404 | 16 | 66 | 0.0 | 1.6 | 0.00 | 0.00 | 0.00 | 62 | 1018.6 |
| 20260502063904 | 16 | 66 | 0.0 | 1.6 | 0.00 | 0.00 | 0.00 | 58 | 1018.5 |
| 20260502063403 | 15 | 66 | 0.0 | 0.0 | 0.00 | 0.00 | 0.00 | 63 | 1018.6 |
| 20260502062903 | 14 | 66 | 0.0 | 0.0 | 0.00 | 0.00 | 0.00 | 66 | 1018.7 |
| 20260502062404 | 14 | 66 | 0.0 | 0.0 | 0.00 | 0.00 | 0.00 | 67 | 1018.6 |
| 20260502061903 | 14 | 66 | 1.6 | 3.2 | 0.00 | 0.00 | 0.00 | 64 | 1018.6 |
| 20260502060903 | 13 | 66 | 0.0 | 3.2 | 0.00 | 0.00 | 0.00 | 68 | 1018.7 |
| 20260502060414 | 13 | 66 | 3.2 | 4.8 | 0.00 | 0.00 | 0.00 | 65 | 1018.6 |
| 20260502055903 | 13 | 66 | 1.6 | 3.2 | 0.00 | 0.00 | 0.00 | 65 | 1018.6 |
| 20260502055413 | 14 | 66 | 0.0 | 3.2 | 0.00 | 0.00 | 0.00 | 70 | 1018.6 |
| 20260502054903 | 14 | 66 | 0.0 | 3.2 | 0.00 | 0.00 | 0.00 | 66 | 1018.5 |
| 20260502054404 | 13 | 66 | 0.0 | 0.0 | 0.00 | 0.00 | 0.00 | 74 | 1018.4 |
| 20260502053903 | 13 | 66 | 0.0 | 0.0 | 0.00 | 0.00 | 0.00 | 73 | 1018.4 |
| 20260502053404 | 12 | 66 | 0.0 | 0.0 | 0.00 | 0.00 | 0.00 | 71 | 1018.4 |
| 20260502052903 | 12 | 66 | 0.0 | 0.0 | 0.00 | 0.00 | 0.00 | 75 | 1018.4 |
| 20260502052404 | 11 | 66 | 0.0 | 3.2 | 0.00 | 0.00 | 0.00 | 78 | 1018.4 |
| 20260502051903 | 12 | 66 | 0.0 | 0.0 | 0.00 | 0.00 | 0.00 | 77 | 1018.4 |
| 20260502051413 | 11 | 66 | 0.0 | 0.0 | 0.00 | 0.00 | 0.00 | 77 | 1018.4 |
| 20260502050904 | 11 | 66 | 0.0 | 0.0 | 0.00 | 0.00 | 0.00 | 77 | 1018.4 |
| 20260502050403 | 10 | 66 | 0.0 | 0.0 | 0.00 | 0.00 | 0.00 | 77 | 1018.3 |
| 20260502045913 | 10 | 66 | 0.0 | 3.2 | 0.00 | 0.00 | 0.00 | 76 | 1018.3 |
| 20260502045403 | 9 | 66 | 0.0 | 3.2 | 0.00 | 0.00 | 0.00 | 85 | 1018.4 |
| 20260502044914 | 9 | 66 | 0.0 | 0.0 | 0.00 | 0.00 | 0.00 | 86 | 1018.4 |
| 20260502044403 | 9 | 66 | 0.0 | 0.0 | 0.00 | 0.00 | 0.00 | 86 | 1018.4 |
| 20260502043903 | 9 | 66 | 0.0 | 0.0 | 0.00 | 0.00 | 0.00 | 86 | 1018.3 |
| 20260502043403 | 9 | 66 | 0.0 | 0.0 | 0.00 | 0.00 | 0.00 | 86 | 1018.4 |
| 20260502042904 | 8 | 66 | 0.0 | 0.0 | 0.00 | 0.00 | 0.00 | 87 | 1018.5 |
| 20260502042403 | 8 | 66 | 0.0 | 0.0 | 0.00 | 0.00 | 0.00 | 87 | 1018.4 |
| 20260502041903 | 8 | 66 | 0.0 | 0.0 | 0.00 | 0.00 | 0.00 | 87 | 1018.5 |
| 20260502041404 | 8 | 66 | 0.0 | 0.0 | 0.00 | 0.00 | 0.00 | 87 | 1018.5 |
| 20260502040904 | 9 | 66 | 0.0 | 0.0 | 0.00 | 0.00 | 0.00 | 84 | 1018.5 |
| 20260502040403 | 9 | 66 | 0.0 | 0.0 | 0.00 | 0.00 | 0.00 | 81 | 1018.5 |
| 20260502035903 | 8 | 66 | 0.0 | 0.0 | 0.00 | 0.00 | 0.00 | 80 | 1018.5 |
| 20260502035404 | 8 | 66 | 0.0 | 0.0 | 0.00 | 0.00 | 0.00 | 80 | 1018.6 |
| 20260502034903 | 8 | 66 | 0.0 | 0.0 | 0.00 | 0.00 | 0.00 | 78 | 1018.6 |
| 20260502034413 | 8 | 66 | 0.0 | 0.0 | 0.00 | 0.00 | 0.00 | 80 | 1018.6 |
| 20260502033903 | 8 | 66 | 0.0 | 0.0 | 0.00 | 0.00 | 0.00 | 79 | 1018.6 |
| 20260502033404 | 9 | 66 | 0.0 | 0.0 | 0.00 | 0.00 | 0.00 | 80 | 1018.6 |
| 20260502032903 | 9 | 66 | 0.0 | 0.0 | 0.00 | 0.00 | 0.00 | 77 | 1018.6 |
| 20260502032403 | 8 | 66 | 0.0 | 1.6 | 0.00 | 0.00 | 0.00 | 81 | 1018.6 |
| 20260502031904 | 8 | 66 | 0.0 | 0.0 | 0.00 | 0.00 | 0.00 | 84 | 1018.7 |
| 20260502031403 | 9 | 66 | 0.0 | 0.0 | 0.00 | 0.00 | 0.00 | 82 | 1018.7 |
| 20260502030903 | 9 | 66 | 0.0 | 0.0 | 0.00 | 0.00 | 0.00 | 79 | 1018.7 |
| 20260502030403 | 10 | 66 | 0.0 | 0.0 | 0.00 | 0.00 | 0.00 | 74 | 1018.7 |
| 20260502025904 | 10 | 66 | 0.0 | 0.0 | 0.00 | 0.00 | 0.00 | 73 | 1018.7 |
| 20260502025403 | 10 | 66 | 0.0 | 3.2 | 0.00 | 0.00 | 0.00 | 69 | 1018.7 |
| 20260502024903 | 9 | 66 | 0.0 | 3.2 | 0.00 | 0.00 | 0.00 | 73 | 1018.8 |
| 20260502024403 | 8 | 66 | 1.6 | 3.2 | 0.00 | 0.00 | 0.00 | 77 | 1018.9 |
| 20260502023904 | 8 | 66 | 0.0 | 0.0 | 0.00 | 0.00 | 0.00 | 92 | 1019.0 |
| 20260502023403 | 8 | 66 | 0.0 | 0.0 | 0.00 | 0.00 | 0.00 | 92 | 1019.0 |
| 20260502022903 | 8 | 66 | 0.0 | 0.0 | 0.00 | 0.00 | 0.00 | 92 | 1019.0 |
| 20260502022404 | 8 | 66 | 0.0 | 0.0 | 0.00 | 0.00 | 0.00 | 92 | 1019.1 |
| 20260502021903 | 8 | 66 | 0.0 | 0.0 | 0.00 | 0.00 | 0.00 | 91 | 1019.1 |
| 20260502021403 | 7 | 66 | 0.0 | 0.0 | 0.00 | 0.00 | 0.00 | 89 | 1019.0 |
| 20260502020904 | 7 | 66 | 0.0 | 0.0 | 0.00 | 0.00 | 0.00 | 90 | 1019.0 |
| 20260502020404 | 7 | 66 | 0.0 | 0.0 | 0.00 | 0.00 | 0.00 | 90 | 1019.1 |
| 20260502015913 | 7 | 66 | 0.0 | 0.0 | 0.00 | 0.00 | 0.00 | 90 | 1019.1 |
| 20260502015403 | 8 | 66 | 0.0 | 0.0 | 0.00 | 0.00 | 0.00 | 89 | 1019.2 |
| 20260502014904 | 8 | 66 | 0.0 | 0.0 | 0.00 | 0.00 | 0.00 | 90 | 1019.2 |
| 20260502014403 | 8 | 66 | 0.0 | 0.0 | 0.00 | 0.00 | 0.00 | 90 | 1019.3 |
| 20260502013903 | 8 | 66 | 0.0 | 0.0 | 0.00 | 0.00 | 0.00 | 88 | 1019.2 |
| 20260502013414 | 8 | 66 | 0.0 | 0.0 | 0.00 | 0.00 | 0.00 | 87 | 1019.3 |
| 20260502012913 | 8 | 66 | 0.0 | 0.0 | 0.00 | 0.00 | 0.00 | 86 | 1019.4 |
| 20260502012403 | 8 | 66 | 0.0 | 0.0 | 0.00 | 0.00 | 0.00 | 86 | 1019.4 |
| 20260502011913 | 8 | 66 | 0.0 | 0.0 | 0.00 | 0.00 | 0.00 | 86 | 1019.4 |
| 20260502011404 | 8 | 66 | 0.0 | 0.0 | 0.00 | 0.00 | 0.00 | 87 | 1019.4 |
| 20260502010903 | 8 | 66 | 0.0 | 0.0 | 0.00 | 0.00 | 0.00 | 87 | 1019.5 |
| 20260502010403 | 8 | 66 | 0.0 | 0.0 | 0.00 | 0.00 | 0.00 | 87 | 1019.5 |
| 20260502005903 | 8 | 66 | 0.0 | 0.0 | 0.00 | 0.00 | 0.00 | 87 | 1019.5 |
| 20260502005414 | 8 | 66 | 0.0 | 0.0 | 0.00 | 0.00 | 0.00 | 88 | 1019.5 |
| 20260502004903 | 8 | 66 | 0.0 | 0.0 | 0.00 | 0.00 | 0.00 | 88 | 1019.6 |
| 20260502004403 | 9 | 66 | 0.0 | 0.0 | 0.00 | 0.00 | 0.00 | 88 | 1019.7 |
| 20260502003904 | 9 | 66 | 0.0 | 0.0 | 0.00 | 0.00 | 0.00 | 88 | 1019.7 |
| 20260502003413 | 9 | 66 | 0.0 | 0.0 | 0.00 | 0.00 | 0.00 | 86 | 1019.7 |
| 20260502002903 | 10 | 66 | 0.0 | 0.0 | 0.00 | 0.00 | 0.00 | 85 | 1019.8 |
| 20260502002403 | 10 | 66 | 0.0 | 0.0 | 0.00 | 0.00 | 0.00 | 81 | 1019.8 |
| 20260502001904 | 9 | 66 | 0.0 | 0.0 | 0.00 | 0.00 | 0.00 | 77 | 1019.9 |
| 20260502001403 | 10 | 66 | 0.0 | 0.0 | 0.00 | 0.00 | 0.00 | 75 | 1019.9 |
| 20260502000903 | 10 | 66 | 0.0 | 0.0 | 0.00 | 0.00 | 0.00 | 74 | 1020.0 |
| 20260502000404 | 10 | 66 | 0.0 | 0.0 | 0.00 | 0.00 | 0.00 | 74 | 1020.0 |
| 20260501235903 | 10 | 66 | 0.0 | 0.0 | 0.00 | 0.00 | 0.00 | 73 | 1020.1 |
| 20260501235403 | 10 | 66 | 0.0 | 0.0 | 0.00 | 0.00 | 0.00 | 71 | 1020.1 |
| 20260501234913 | 10 | 66 | 0.0 | 0.0 | 0.00 | 0.00 | 0.00 | 70 | 1020.2 |
| 20260501234404 | 10 | 66 | 0.0 | 0.0 | 0.00 | 0.00 | 0.00 | 71 | 1020.2 |
| 20260501233903 | 10 | 66 | 0.0 | 0.0 | 0.00 | 0.00 | 0.00 | 71 | 1020.2 |
| 20260501233403 | 10 | 66 | 0.0 | 0.0 | 0.00 | 0.00 | 0.00 | 71 | 1020.3 |
| 20260501232913 | 10 | 66 | 0.0 | 0.0 | 0.00 | 0.00 | 0.00 | 71 | 1020.3 |
| 20260501232404 | 10 | 66 | 0.0 | 0.0 | 0.00 | 0.00 | 0.00 | 70 | 1020.4 |